Time,TemperatureF,DewpointF,PressureIn,WindDirection,WindDirectionDegrees,WindSpeedMPH,WindSpeedGustMPH,Humidity,HourlyPrecipIn,Conditions,Clouds,dailyrainin,SoftwareType,DateUTC
2013-07-29 00:00:00,57.6,52.4,29.84,North,351,0.0,0.0,83,0.00,,,-99.99,Weather View 32 v60,2013-07-29 07:00:00,
2013-07-29 00:10:00,57.4,52.6,29.84,North,351,0.0,0.0,84,0.00,,,-99.99,Weather View 32 v60,2013-07-29 07:10:00,
2013-07-29 00:20:00,57.4,52.6,29.84,NNW,337,0.0,0.0,84,0.00,,,-99.99,Weather View 32 v60,2013-07-29 07:20:00,
2013-07-29 00:30:00,57.4,52.9,29.84,NNW,334,0.0,0.0,85,0.00,,,-99.99,Weather View 32 v60,2013-07-29 07:30:00,
2013-07-29 00:40:00,57.4,53.2,29.84,NNW,339,0.0,0.0,86,0.00,,,-99.99,Weather View 32 v60,2013-07-29 07:40:00,
2013-07-29 00:50:00,57.2,53.0,29.84,NNW,330,0.0,0.0,86,0.00,,,-99.99,Weather View 32 v60,2013-07-29 07:50:00,
2013-07-29 01:00:00,57.2,53.0,29.84,NNW,330,0.0,0.0,86,0.00,,,-99.99,Weather View 32 v60,2013-07-29 08:00:00,
2013-07-29 01:10:00,57.0,52.9,29.84,NNW,330,0.0,0.0,86,0.00,,,-99.99,Weather View 32 v60,2013-07-29 08:10:00,
2013-07-29 01:20:00,56.7,52.5,29.84,NNW,341,0.0,0.0,86,0.00,,,-99.99,Weather View 32 v60,2013-07-29 08:20:00,
2013-07-29 01:30:00,56.7,52.8,29.84,NW,326,0.0,0.0,87,0.00,,,-99.99,Weather View 32 v60,2013-07-29 08:30:00,
2013-07-29 01:40:00,56.8,53.3,29.84,SW,231,0.0,0.0,88,0.00,,,-99.99,Weather View 32 v60,2013-07-29 08:40:00,
2013-07-29 01:50:00,56.8,53.3,29.84,NW,324,0.0,0.0,88,0.00,,,-99.99,Weather View 32 v60,2013-07-29 08:50:00,
2013-07-29 02:00:00,57.0,53.8,29.84,North,2,0.0,0.0,89,0.00,,,-99.99,Weather View 32 v60,2013-07-29 09:00:00,
2013-07-29 02:10:00,56.8,53.3,29.84,North,2,0.0,0.0,88,0.00,,,-99.99,Weather View 32 v60,2013-07-29 09:10:00,
2013-07-29 02:20:00,56.5,53.0,29.84,North,2,0.0,0.0,88,0.00,,,-99.99,Weather View 32 v60,2013-07-29 09:20:00,
2013-07-29 02:30:00,55.9,52.4,29.84,WNW,291,0.0,0.0,88,0.00,,,-99.99,Weather View 32 v60,2013-07-29 09:30:00,
2013-07-29 02:40:00,55.8,52.3,29.84,WNW,290,0.0,0.0,88,0.00,,,-99.99,Weather View 32 v60,2013-07-29 09:40:00,
2013-07-29 02:50:00,55.8,52.6,29.84,West,279,0.0,0.0,89,0.00,,,-99.99,Weather View 32 v60,2013-07-29 09:50:00,
2013-07-29 02:55:00,55.8,52.6,29.84,West,279,0.0,0.0,89,0.00,,,-99.99,Weather View 32 v60,2013-07-29 09:55:00,
2013-07-29 03:20:00,55.2,52.0,29.84,West,279,0.0,0.0,89,0.00,,,-99.99,Weather View 32 v60,2013-07-29 10:20:00,
2013-07-29 03:30:00,55.2,52.3,29.84,West,279,0.0,0.0,90,0.00,,,-99.99,Weather View 32 v60,2013-07-29 10:30:00,
2013-07-29 03:40:00,55.0,52.2,29.87,West,279,0.0,0.0,90,0.00,,,-99.99,Weather View 32 v60,2013-07-29 10:40:00,
2013-07-29 03:50:00,54.9,52.0,29.87,West,279,0.0,0.0,90,0.00,,,-99.99,Weather View 32 v60,2013-07-29 10:50:00,
2013-07-29 03:56:00,54.9,52.0,29.87,West,279,0.0,0.0,90,0.00,,,-99.99,Weather View 32 v60,2013-07-29 10:56:00,
2013-07-29 04:20:00,54.5,51.9,29.87,NE,55,0.0,0.0,91,0.00,,,-99.99,Weather View 32 v60,2013-07-29 11:20:00,
2013-07-29 04:30:00,54.3,51.7,29.87,NE,41,0.0,0.0,91,0.00,,,-99.99,Weather View 32 v60,2013-07-29 11:30:00,
2013-07-29 04:40:00,54.1,51.6,29.87,NE,41,0.0,0.0,91,0.00,,,-99.99,Weather View 32 v60,2013-07-29 11:40:00,
2013-07-29 04:50:00,54.1,51.9,29.87,NE,41,0.0,0.0,92,0.00,,,-99.99,Weather View 32 v60,2013-07-29 11:50:00,
2013-07-29 04:56:00,54.1,51.9,29.87,NE,41,0.0,0.0,92,0.00,,,-99.99,Weather View 32 v60,2013-07-29 11:56:00,
2013-07-29 05:10:00,54.0,51.7,29.87,NE,41,0.0,0.0,92,0.00,,,-99.99,Weather View 32 v60,2013-07-29 12:10:00,
2013-07-29 05:20:00,53.8,51.5,29.87,NE,41,0.0,0.0,92,0.00,,,-99.99,Weather View 32 v60,2013-07-29 12:20:00,
2013-07-29 05:30:00,53.8,51.8,29.87,NE,41,0.0,0.0,93,0.00,,,-99.99,Weather View 32 v60,2013-07-29 12:30:00,
2013-07-29 05:40:00,53.4,51.4,29.87,NE,41,0.0,0.0,93,0.00,,,-99.99,Weather View 32 v60,2013-07-29 12:40:00,
2013-07-29 05:57:00,53.6,51.6,29.87,East,83,0.0,0.0,93,0.00,,,-99.99,Weather View 32 v60,2013-07-29 12:57:00,
2013-07-29 06:10:00,52.9,50.9,29.87,East,81,0.0,0.0,93,0.00,,,-99.99,Weather View 32 v60,2013-07-29 13:10:00,
2013-07-29 06:30:00,53.1,51.4,29.87,East,81,0.0,0.0,94,0.00,,,-99.99,Weather View 32 v60,2013-07-29 13:30:00,
2013-07-29 06:40:00,53.1,51.4,29.90,East,81,0.0,0.0,94,0.00,,,-99.99,Weather View 32 v60,2013-07-29 13:40:00,
2013-07-29 06:50:00,53.4,51.7,29.90,East,81,0.0,0.0,94,0.00,,,-99.99,Weather View 32 v60,2013-07-29 13:50:00,
2013-07-29 06:57:00,53.4,51.7,29.90,East,81,0.0,0.0,94,0.00,,,-99.99,Weather View 32 v60,2013-07-29 13:57:00,
2013-07-29 07:10:00,54.7,53.0,29.90,East,81,0.0,0.0,94,0.00,,,-99.99,Weather View 32 v60,2013-07-29 14:10:00,
2013-07-29 07:20:00,55.6,53.9,29.90,East,81,0.0,0.0,94,0.00,,,-99.99,Weather View 32 v60,2013-07-29 14:20:00,
2013-07-29 07:40:00,57.2,54.6,29.90,NE,37,0.0,0.0,91,0.00,,,-99.99,Weather View 32 v60,2013-07-29 14:40:00,
2013-07-29 07:50:00,58.1,54.6,29.90,NNE,33,0.0,0.0,88,0.00,,,-99.99,Weather View 32 v60,2013-07-29 14:50:00,
2013-07-29 07:58:00,58.1,54.6,29.90,NNE,33,0.0,0.0,88,0.00,,,-99.99,Weather View 32 v60,2013-07-29 14:58:00,
2013-07-29 08:10:00,59.9,51.9,29.90,ENE,76,0.0,0.0,75,0.00,,,-99.99,Weather View 32 v60,2013-07-29 15:10:00,
2013-07-29 08:20:00,60.8,51.7,29.90,ENE,71,0.0,0.0,72,0.00,,,-99.99,Weather View 32 v60,2013-07-29 15:20:00,
2013-07-29 08:30:00,61.3,50.7,29.93,SW,225,0.0,0.0,68,0.00,,,-99.99,Weather View 32 v60,2013-07-29 15:30:00,
2013-07-29 08:40:00,61.9,50.8,29.93,North,351,0.0,0.0,67,0.00,,,-99.99,Weather View 32 v60,2013-07-29 15:40:00,
2013-07-29 08:50:00,63.0,49.7,29.93,NNE,33,0.0,3.0,62,0.00,,,-99.99,Weather View 32 v60,2013-07-29 15:50:00,
2013-07-29 08:58:00,63.0,49.7,29.93,NNE,33,0.0,3.0,62,0.00,,,-99.99,Weather View 32 v60,2013-07-29 15:58:00,
2013-07-29 09:20:00,65.7,49.5,29.93,SW,228,0.0,3.0,56,0.00,,,-99.99,Weather View 32 v60,2013-07-29 16:20:00,
2013-07-29 09:30:00,66.4,48.2,29.93,North,356,0.0,5.0,52,0.00,,,-99.99,Weather View 32 v60,2013-07-29 16:30:00,
2013-07-29 09:40:00,67.3,48.5,29.93,WSW,245,0.0,5.0,51,0.00,,,-99.99,Weather View 32 v60,2013-07-29 16:40:00,
2013-07-29 09:50:00,68.4,46.7,29.93,North,356,0.0,5.0,46,0.00,,,-99.99,Weather View 32 v60,2013-07-29 16:50:00,
2013-07-29 09:59:00,68.4,46.7,29.93,North,356,0.0,5.0,46,0.00,,,-99.99,Weather View 32 v60,2013-07-29 16:59:00,
2013-07-29 10:10:00,70.7,47.0,29.93,SE,129,0.0,5.0,43,0.00,,,-99.99,Weather View 32 v60,2013-07-29 17:10:00,
2013-07-29 10:20:00,71.6,46.6,29.93,ESE,122,0.0,5.0,41,0.00,,,-99.99,Weather View 32 v60,2013-07-29 17:20:00,
2013-07-29 10:30:00,72.1,48.3,29.93,North,351,3.0,6.0,43,0.00,,,-99.99,Weather View 32 v60,2013-07-29 17:30:00,
2013-07-29 10:40:00,71.4,47.1,29.93,NNE,27,0.0,8.0,42,0.00,,,-99.99,Weather View 32 v60,2013-07-29 17:40:00,
2013-07-29 10:50:00,71.6,48.5,29.93,North,351,0.0,8.0,44,0.00,,,-99.99,Weather View 32 v60,2013-07-29 17:50:00,
2013-07-29 10:59:00,71.6,48.5,29.93,North,351,0.0,8.0,44,0.00,,,-99.99,Weather View 32 v60,2013-07-29 17:59:00,
2013-07-29 11:10:00,74.1,45.4,29.93,East,83,0.0,8.0,36,0.00,,,-99.99,Weather View 32 v60,2013-07-29 18:10:00,
2013-07-29 11:30:00,77.4,45.1,29.93,WSW,240,3.0,8.0,32,0.00,,,-99.99,Weather View 32 v60,2013-07-29 18:30:00,
2013-07-29 11:40:00,77.4,45.1,29.93,SE,141,0.0,7.0,32,0.00,,,-99.99,Weather View 32 v60,2013-07-29 18:40:00,
2013-07-29 11:50:00,78.4,45.2,29.93,SE,136,0.0,9.0,31,0.00,,,-99.99,Weather View 32 v60,2013-07-29 18:50:00,
2013-07-29 12:10:00,80.8,46.4,29.93,SE,142,0.0,9.0,30,0.00,,,-99.99,Weather View 32 v60,2013-07-29 19:10:00,
2013-07-29 12:30:00,80.4,46.9,29.93,NW,322,0.0,9.0,31,0.00,,,-99.99,Weather View 32 v60,2013-07-29 19:30:00,
2013-07-29 12:40:00,80.2,47.6,29.93,WSW,252,4.0,9.0,32,0.00,,,-99.99,Weather View 32 v60,2013-07-29 19:40:00,
2013-07-29 13:00:00,80.1,48.3,29.93,West,260,0.0,9.0,33,0.00,,,-99.99,Weather View 32 v60,2013-07-29 20:00:00,
2013-07-29 13:10:00,80.2,48.4,29.93,West,272,0.0,9.0,33,0.00,,,-99.99,Weather View 32 v60,2013-07-29 20:10:00,
2013-07-29 13:20:00,81.0,48.2,29.93,NNW,334,0.0,9.0,32,0.00,,,-99.99,Weather View 32 v60,2013-07-29 20:20:00,
2013-07-29 13:30:00,81.9,48.2,29.93,West,264,0.0,9.0,31,0.00,,,-99.99,Weather View 32 v60,2013-07-29 20:30:00,
2013-07-29 13:40:00,81.1,47.5,29.93,WSW,258,0.0,13.0,31,0.00,,,-99.99,Weather View 32 v60,2013-07-29 20:40:00,
2013-07-29 14:00:00,81.0,47.4,29.93,North,2,3.0,13.0,31,0.00,,,-99.99,Weather View 32 v60,2013-07-29 21:00:00,
2013-07-29 14:20:00,83.8,48.1,29.93,WSW,256,0.0,13.0,29,0.00,,,-99.99,Weather View 32 v60,2013-07-29 21:20:00,
2013-07-29 14:30:00,84.2,48.4,29.93,WNW,288,0.0,13.0,29,0.00,,,-99.99,Weather View 32 v60,2013-07-29 21:30:00,
2013-07-29 14:40:00,84.7,48.9,29.93,SSW,199,0.0,11.0,29,0.00,,,-99.99,Weather View 32 v60,2013-07-29 21:40:00,
2013-07-29 14:50:00,84.9,49.0,29.93,WSW,239,10.0,11.0,29,0.00,,,-99.99,Weather View 32 v60,2013-07-29 21:50:00,
2013-07-29 15:00:00,84.9,49.0,29.93,NW,310,0.0,12.0,29,0.00,,,-99.99,Weather View 32 v60,2013-07-29 22:00:00,
2013-07-29 15:10:00,83.7,47.9,29.93,NW,305,0.0,12.0,29,0.00,,,-99.99,Weather View 32 v60,2013-07-29 22:10:00,
2013-07-29 15:20:00,83.3,47.6,29.93,West,271,3.0,12.0,29,0.00,,,-99.99,Weather View 32 v60,2013-07-29 22:20:00,
2013-07-29 15:30:00,83.3,48.5,29.93,NNW,333,0.0,12.0,30,0.00,,,-99.99,Weather View 32 v60,2013-07-29 22:30:00,
2013-07-29 15:40:00,82.2,48.5,29.93,WSW,250,0.0,12.0,31,0.00,,,-99.99,Weather View 32 v60,2013-07-29 22:40:00,
2013-07-29 15:50:00,82.0,48.3,29.93,NW,313,3.0,12.0,31,0.00,,,-99.99,Weather View 32 v60,2013-07-29 22:50:00,
2013-07-29 16:00:00,81.5,48.7,29.93,WNW,296,0.0,12.0,32,0.00,,,-99.99,Weather View 32 v60,2013-07-29 23:00:00,
2013-07-29 16:10:00,81.1,49.2,29.93,WSW,240,3.0,12.0,33,0.00,,,-99.99,Weather View 32 v60,2013-07-29 23:10:00,
2013-07-29 16:30:00,79.5,48.6,29.93,SW,223,0.0,12.0,34,0.00,,,-99.99,Weather View 32 v60,2013-07-29 23:30:00,
2013-07-29 16:40:00,77.7,48.6,29.93,NNW,341,0.0,10.0,36,0.00,,,-99.99,Weather View 32 v60,2013-07-29 23:40:00,
2013-07-29 16:50:00,77.0,49.4,29.93,WSW,258,0.0,10.0,38,0.00,,,-99.99,Weather View 32 v60,2013-07-29 23:50:00,
2013-07-29 17:00:00,76.8,49.9,29.93,West,267,0.0,10.0,39,0.00,,,-99.99,Weather View 32 v60,2013-07-30 00:00:00,
2013-07-29 17:10:00,76.5,49.6,29.93,West,271,4.0,13.0,39,0.00,,,-99.99,Weather View 32 v60,2013-07-30 00:10:00,
2013-07-29 17:20:00,75.4,50.0,29.93,SW,236,4.0,13.0,41,0.00,,,-99.99,Weather View 32 v60,2013-07-30 00:20:00,
2013-07-29 17:30:00,75.0,49.7,29.93,WSW,238,0.0,13.0,41,0.00,,,-99.99,Weather View 32 v60,2013-07-30 00:30:00,
2013-07-29 17:40:00,73.8,49.2,29.93,SW,233,8.0,13.0,42,0.00,,,-99.99,Weather View 32 v60,2013-07-30 00:40:00,
2013-07-29 17:50:00,72.5,49.9,29.93,NW,324,0.0,13.0,45,0.00,,,-99.99,Weather View 32 v60,2013-07-30 00:50:00,
2013-07-29 18:03:00,71.1,49.2,29.93,NNE,17,4.0,13.0,46,0.00,,,-99.99,Weather View 32 v60,2013-07-30 01:03:00,
2013-07-29 18:10:00,69.8,49.7,29.93,WNW,302,3.0,14.0,49,0.00,,,-99.99,Weather View 32 v60,2013-07-30 01:10:00,
2013-07-29 18:30:00,67.5,50.7,29.96,West,279,7.0,14.0,55,0.00,,,-99.99,Weather View 32 v60,2013-07-30 01:30:00,
2013-07-29 18:40:00,66.4,50.6,29.93,West,266,0.0,14.0,57,0.00,,,-99.99,Weather View 32 v60,2013-07-30 01:40:00,
2013-07-29 18:50:00,66.0,51.2,29.93,NNE,16,4.0,14.0,59,0.00,,,-99.99,Weather View 32 v60,2013-07-30 01:50:00,
2013-07-29 19:00:00,65.7,51.4,29.96,NW,309,0.0,14.0,60,0.00,,,-99.99,Weather View 32 v60,2013-07-30 02:00:00,
2013-07-29 19:10:00,64.9,51.6,29.93,WSW,239,0.0,13.0,62,0.00,,,-99.99,Weather View 32 v60,2013-07-30 02:10:00,
2013-07-29 19:30:00,64.4,51.5,29.96,West,278,0.0,13.0,63,0.00,,,-99.99,Weather View 32 v60,2013-07-30 02:30:00,
2013-07-29 19:40:00,63.9,51.4,29.96,NNW,327,0.0,13.0,64,0.00,,,-99.99,Weather View 32 v60,2013-07-30 02:40:00,
2013-07-29 20:00:00,62.2,51.5,29.96,South,186,0.0,13.0,68,0.00,,,-99.99,Weather View 32 v60,2013-07-30 03:00:00,
2013-07-29 20:10:00,61.7,51.4,29.96,NW,321,0.0,13.0,69,0.00,,,-99.99,Weather View 32 v60,2013-07-30 03:10:00,
2013-07-29 20:20:00,61.2,51.3,29.96,NNW,343,0.0,11.0,70,0.00,,,-99.99,Weather View 32 v60,2013-07-30 03:20:00,
2013-07-29 20:30:00,60.6,51.5,29.96,West,280,0.0,10.0,72,0.00,,,-99.99,Weather View 32 v60,2013-07-30 03:30:00,
2013-07-29 20:40:00,60.3,51.5,29.96,SSW,203,0.0,10.0,73,0.00,,,-99.99,Weather View 32 v60,2013-07-30 03:40:00,
2013-07-29 20:50:00,60.1,51.7,29.96,WSW,246,0.0,10.0,74,0.00,,,-99.99,Weather View 32 v60,2013-07-30 03:50:00,
2013-07-29 21:00:00,59.7,51.8,29.96,NW,316,0.0,10.0,75,0.00,,,-99.99,Weather View 32 v60,2013-07-30 04:00:00,
2013-07-29 21:05:00,59.7,51.8,29.96,NW,316,0.0,10.0,75,0.00,,,-99.99,Weather View 32 v60,2013-07-30 04:05:00,
2013-07-29 21:10:00,59.5,51.9,29.99,North,351,0.0,8.0,76,0.00,,,-99.99,Weather View 32 v60,2013-07-30 04:10:00,
2013-07-29 21:20:00,59.4,51.8,29.99,North,1,0.0,8.0,76,0.00,,,-99.99,Weather View 32 v60,2013-07-30 04:20:00,
2013-07-29 21:30:00,59.4,52.1,29.99,NNW,335,0.0,8.0,77,0.00,,,-99.99,Weather View 32 v60,2013-07-30 04:30:00,
2013-07-29 21:40:00,59.0,52.1,29.99,North,351,0.0,7.0,78,0.00,,,-99.99,Weather View 32 v60,2013-07-30 04:40:00,
2013-07-29 21:50:00,58.8,52.3,29.99,West,263,0.0,7.0,79,0.00,,,-99.99,Weather View 32 v60,2013-07-30 04:50:00,
2013-07-29 22:00:00,58.5,52.3,29.99,NW,321,0.0,7.0,80,0.00,,,-99.99,Weather View 32 v60,2013-07-30 05:00:00,
2013-07-29 22:05:00,58.5,52.3,29.99,NW,321,0.0,7.0,80,0.00,,,-99.99,Weather View 32 v60,2013-07-30 05:05:00,
2013-07-29 22:20:00,58.1,52.3,29.99,WSW,250,0.0,7.0,81,0.00,,,-99.99,Weather View 32 v60,2013-07-30 05:20:00,
2013-07-29 22:30:00,57.9,52.4,29.99,NW,309,0.0,7.0,82,0.00,,,-99.99,Weather View 32 v60,2013-07-30 05:30:00,
2013-07-29 22:40:00,57.7,52.6,29.99,NNW,335,0.0,7.0,83,0.00,,,-99.99,Weather View 32 v60,2013-07-30 05:40:00,
2013-07-29 22:50:00,57.7,52.6,29.99,NNW,331,0.0,7.0,83,0.00,,,-99.99,Weather View 32 v60,2013-07-30 05:50:00,
2013-07-29 23:00:00,57.6,52.4,29.99,NNW,339,0.0,7.0,83,0.00,,,-99.99,Weather View 32 v60,2013-07-30 06:00:00,
2013-07-29 23:06:00,57.6,52.4,29.99,NNW,339,0.0,7.0,83,0.00,,,-99.99,Weather View 32 v60,2013-07-30 06:06:00,
2013-07-29 23:20:00,57.4,52.6,29.99,NNW,334,0.0,6.0,84,0.00,,,-99.99,Weather View 32 v60,2013-07-30 06:20:00,
2013-07-29 23:30:00,57.4,52.6,29.99,NNE,14,0.0,6.0,84,0.00,,,-99.99,Weather View 32 v60,2013-07-30 06:30:00,
2013-07-29 23:40:00,57.2,52.4,30.02,West,276,0.0,6.0,84,0.00,,,-99.99,Weather View 32 v60,2013-07-30 06:40:00,
2013-07-29 23:50:00,57.2,52.4,30.02,NW,317,0.0,6.0,84,0.00,,,-99.99,Weather View 32 v60,2013-07-30 06:50:00,